This demonstration page uses our WeatherBlox Daily Observations layout. Learn more.

38.89511, -77.03637

Hourly Observations for November 20, 2017

Temp ( °F °C ) Dew Point ( °F °C ) Humidity (%) Winds ( mph kmh ) Pressure ( in mb ) Visibility ( mi km ) Precip ( " mm )
12:52 am 00:52 Cloudy 43 6.1 28 -2.2 56 56 NW 10 17 30 1016 10 16.09344 0 0
1:52 am 01:52 Cloudy 43 6.1 27 -2.8 53 53 NW 6 9 30.03 1017 10 16.09344 0 0
2:52 am 02:52 Cloudy 43 6.1 23 -5 45 45 W 10 17 30.03 1017 10 16.09344 0 0
3:52 am 03:52 Mostly Cloudy 42 5.6 21 -6.1 43 43 WNW 14 22 30.06 1018 10 16.09344 0 0
4:52 am 04:52 Partly Cloudy 41 5 21 -6.1 45 45 WNW 13 20 30.09 1019 10 16.09344 0 0
5:52 am 05:52 Partly Cloudy 40 4.4 20 -6.7 45 45 NW 9 15 30.12 1020 10 16.09344 0 0
6:52 am 06:52 Mostly Clear 39 3.9 20 -6.7 46 46 WNW 9 15 30.15 1021 10 16.09344 0 0
7:52 am 07:52 Mostly Sunny 40 4.4 20 -6.7 45 45 WNW 9 15 30.18 1022 10 16.09344 0 0
8:52 am 08:52 Sunny 42 5.6 20 -6.7 41 41 WNW 13 20 30.21 1023 10 16.09344 0 0
9:52 am 09:52 Sunny 44 6.7 19 -7.2 37 37 WNW 10 17 30.21 1023 10 16.09344 0 0
10:52 am 10:52 Sunny 46 7.8 20 -6.7 35 35 W 9 15 30.21 1023 10 16.09344 0 0
11:52 am 11:52 Mostly Sunny 48 8.9 22 -5.6 36 36 WSW 13 20 30.18 1022 10 16.09344 0 0
12:52 pm 12:52 Mostly Sunny 50 10 22 -5.6 33 33 W 12 19 30.18 1022 10 16.09344 0 0
1:52 pm 13:52 Mostly Sunny 51 10.6 21 -6.1 31 31 WSW 17 28 30.18 1022 10 16.09344 0 0
2:52 pm 14:52 Mostly Sunny 52 11.1 21 -6.1 30 30 W 18 30 30.15 1021 10 16.09344 0 0
3:52 pm 15:52 Mostly Sunny 52 11.1 21 -6.1 30 30 SW 9 15 30.18 1022 10 16.09344 0 0
4:52 pm 16:52 Mostly Clear 50 10 21 -6.1 32 32 SW 9 15 30.18 1022 10 16.09344 0 0
5:52 pm 17:52 Mostly Clear 48 8.9 22 -5.6 36 36 SSW 8 13 30.18 1022 10 16.09344 0 0
6:52 pm 18:52 Mostly Clear 45 7.2 29 -1.7 54 54 SSW 7 11 30.18 1022 10 16.09344 0 0
7:52 pm 19:52 Clear 45 7.2 26 -3.3 48 48 SSW 10 17 30.18 1022 10 16.09344 0 0
8:52 pm 20:52 Clear 43 6.1 27 -2.8 53 53 S 7 11 30.18 1022 10 16.09344 0 0
9:52 pm 21:52 Clear 43 6.1 27 -2.8 53 53 SW 5 7 30.18 1022 10 16.09344 0 0
10:52 pm 22:52 Mostly Cloudy 43 6.1 28 -2.2 56 56 SW 5 7 30.18 1022 10 16.09344 0 0
11:52 pm 23:52 Mostly Cloudy 42 5.6 29 -1.7 60 60 SSW 5 7 30.18 1022 10 16.09344 0 0

Powered by AerisWeather